Weather History for KCON - December, 2012

Change the Weather History Date:

Sunday, December 9, 2012

  Actual Average Record
Temperature  
Mean Temperature 36 °F 29 °F  
Max Temperature 44 °F 39 °F 58 °F (1889)
Min Temperature 27 °F 20 °F -12 °F (1902)
Degree Days  
Heating Degree Days 29 36  
Month to date heating degree days 277 307  
Since 1 July heating degree days 1744 1867  
Cooling Degree Days 0 0  
Month to date cooling degree days 0 0  
Year to date cooling degree days 569 452  
Moisture  
Dew Point 29 °F    
Average Humidity 75    
Maximum Humidity 100    
Minimum Humidity 49    
Precipitation  
Precipitation 0.03 in 0.11 in 1.08 in (2014)
Month to date precipitation 0.62 0.99  
Year to date precipitation 36.34 38.40  
Snow  
Snow T in 0.50 in 15.60 in (2005)
Month to date snowfall 0.9 3.5  
Since 1 July snowfall 1.9 6.1  
Snow Depth 0.00 in    
Sea Level Pressure  
Sea Level Pressure 30.16 in    
Wind  
Wind Speed 2 mph (NNW)    
Max Wind Speed 17 mph    
Max Gust Speed 21 mph    
Visibility 6 miles    
Events Fog , Rain    
T = Trace of Precipitation, MM = Missing Value Source: NWS Daily Summary

Daily Weather History Graph

Daily Weather History Graph

Search for Another Location

Airport or City:

Trip Planner

Search our weather history database for the weather conditions in past years. The results will help you decide how hot, cold, wet, or windy it might be!

Date:

Astronomy

Dec. 09, 2012 Rise Set
Actual Time 7:06 AM EST 4:10 PM EST
Civil Twilight 6:34 AM EST 4:42 PM EST
Nautical Twilight 5:58 AM EST 5:18 PM EST
Astronomical Twilight 5:23 AM EST 5:53 PM EST
Moon 2:30 AM EST (12/9) 1:19 PM EST (12/9)
Length of Visible Light 10h 08m
Length of Day
9h 03m
Waning Crescent, 19% of the Moon is Illuminated
Dec 9
Waning Crescent
Dec 13
New
Dec 20
First Quarter
Dec 28
Full
Jan 4
Last Quarter

Hourly Weather History & Observations

Time (EST) Temp. Windchill Dew Point Humidity Pressure Visibility Wind Dir Wind Speed Gust Speed Precip Events Conditions
12:51 AM 35.1 °F - 35.1 °F 100% 29.96 in 0.2 mi Calm Calm - N/A Fog Fog
1:09 AM 35.6 °F - 35.6 °F 100% 29.96 in 0.2 mi Calm Calm - N/A Fog Fog
1:18 AM 33.8 °F - 33.8 °F 100% 29.96 in 0.2 mi Calm Calm - N/A Fog Fog
1:51 AM 33.1 °F - 33.1 °F 100% 30.00 in 0.2 mi Calm Calm - N/A Fog Fog
2:51 AM 33.1 °F - 33.1 °F 100% 30.02 in 0.2 mi Calm Calm - N/A Fog Fog
3:43 AM 32.0 °F - 32.0 °F 100% 30.03 in 0.5 mi Calm Calm - N/A Fog Fog
3:51 AM 30.9 °F - 30.9 °F 100% 30.04 in 0.2 mi Calm Calm - N/A Fog Light Freezing Fog
4:22 AM 30.2 °F - 30.2 °F 100% 30.04 in 0.5 mi Calm Calm - N/A Fog Light Freezing Fog
4:51 AM 28.0 °F - 28.0 °F 100% 30.09 in 1.8 mi Calm Calm - N/A   Partly Cloudy
4:55 AM 28.4 °F - 28.4 °F 100% 30.07 in 3.0 mi Calm Calm - N/A   Partly Cloudy
5:06 AM 28.4 °F - 28.4 °F 100% 30.08 in 1.8 mi Calm Calm - N/A   Clear
5:25 AM 28.4 °F - 28.4 °F 100% 30.10 in 1.0 mi Calm Calm - N/A   Clear
5:30 AM 28.4 °F - 28.4 °F 100% 30.10 in 2.5 mi Calm Calm - N/A   Clear
5:37 AM 28.4 °F - 28.4 °F 100% 30.10 in 4.0 mi Calm Calm - N/A   Clear
5:51 AM 28.4 °F 24.6 °F 28.4 °F 100% 30.11 in 4.0 mi North 3.5 mph - N/A   Clear
6:51 AM 28.0 °F - 28.0 °F 100% 30.17 in 4.0 mi Calm Calm - N/A   Clear
7:51 AM 30.0 °F - 28.9 °F 96% 30.21 in 7.0 mi Calm Calm - N/A   Clear
8:51 AM 37.0 °F 32.4 °F 32.0 °F 82% 30.25 in 10.0 mi NW 5.8 mph - N/A   Clear
9:51 AM 39.0 °F 35.7 °F 32.0 °F 76% 30.27 in 10.0 mi NNW 4.6 mph - N/A   Clear
10:51 AM 41.0 °F 33.5 °F 30.9 °F 67% 30.26 in 10.0 mi NNW 13.8 mph 18.4 mph N/A   Clear
11:51 AM 42.1 °F 37.7 °F 28.9 °F 60% 30.24 in 10.0 mi NNW 6.9 mph - N/A   Clear
12:51 PM 42.1 °F 37.7 °F 28.0 °F 58% 30.25 in 10.0 mi NW 6.9 mph - N/A   Clear
1:51 PM 44.1 °F 40.8 °F 28.0 °F 53% 30.25 in 10.0 mi WNW 5.8 mph - N/A   Clear
2:51 PM 44.6 °F 43.1 °F 26.6 °F 49% 30.25 in 10.0 mi NNW 3.5 mph - N/A   Clear
3:51 PM 39.9 °F - 25.0 °F 55% 30.26 in 10.0 mi Calm Calm - N/A   Clear
4:51 PM 32.0 °F - 26.1 °F 79% 30.28 in 10.0 mi Calm Calm - N/A   Clear
5:51 PM 30.0 °F - 27.0 °F 88% 30.30 in 10.0 mi Calm Calm - N/A   Mostly Cloudy
6:51 PM 27.0 °F 23.0 °F 26.1 °F 96% 30.31 in 10.0 mi ENE 3.5 mph - N/A   Partly Cloudy
7:51 PM 30.0 °F 26.5 °F 27.0 °F 88% 30.28 in 10.0 mi ENE 3.5 mph - N/A   Overcast
8:51 PM 30.9 °F - 28.9 °F 92% 30.27 in 10.0 mi Calm Calm - N/A   Overcast
9:51 PM 32.0 °F - 28.9 °F 88% 30.24 in 10.0 mi Calm Calm - N/A   Overcast
10:51 PM 32.0 °F - 28.9 °F 88% 30.21 in 10.0 mi Calm Calm - N/A   Overcast
11:51 PM 32.0 °F - 30.9 °F 96% 30.20 in 4.0 mi Calm Calm - 0.02 in Rain Rain